Find Starlink 30161

NORAD ID: 57476 Int'l Des: 2023-107 Owner: SPXS Country: US Constellation: starlink operational
LEOCIRCULAR

リアルタイム位置

3D地球を読み込み中...

Starlink 30161について

説明を読み込み中...

次回通過

Passes for default location (London). Set your location on the main map for personalized predictions.

高度履歴

Loading altitude history...

軌道要素

1 57476U 23107V 26129.97703610 -.00001917 00000-0 -60162-4 0 9994
2 57476 43.0031 349.6876 0001525 269.5062 90.5615 15.27569342154525
Epoch: May 9, 2026 • Age: 14 hours

現在のステータス

高度 494.8 km
速度 7.62 km/s
衛星直下点 -41.59°S, 172.51°E
打ち上げ日 Jul 28, 2023
運用期間 2.7 years
タイプ internet

技術仕様

分類 Payload
質量 730.00 kg
乾燥質量 700.00 kg
総質量 730.00 kg
長さ 0.30 m
直径 4.10 m
スパン 29.00 m
形状 Box + pan
製造者 SPXS
バスタイプ Starlink V2M
フェーズステータス In Orbit
所有者/国 SPXS/US

Most Searched